Tracking 34747 objects as of 16-Jul-2026
HD Live streaming from Space Station
objects crossing your sky now

BREEZE-M DEB

Track BREEZE-M DEB now!
10-day predictions


NORAD ID: 34243
Int'l Code: 2006-006BJ
Perigee: 466.3 km
Apogee: 14,264.9 km
Inclination: 51.6 °
Period: 267.0 minutes
Semi major axis: 13736 km
RCS: 0.0318 m2 (small)
Launch date: February 28, 2006
Source: Commonwealth of Independent States (former USSR) (CIS)
Launch site: TYURATAM MISSILE AND SPACE COMPLEX (TTMTR)

Note: This is SATELLITE DEBRIS
Your satellite tracking list
Your tracking list is empty




NASA's NSSDC Master Catalog

Two Line Element Set (TLE):
1 34243U 06006BJ  26196.86332412  .00001995  00000-0  22713-2 0  9992
2 34243  51.6080  84.7243 5022587  91.3796 324.1754  5.39245139 59922
Source of the keplerian elements: AFSPC